Regional Weather Roundup
Issued by NWS

Home | Current Version | Previous Version | Graphics & Text | Print | Product List | Glossary On
Versions: 1 2 3 4 5 6 7 8 9 10 11 12 13 14 15 16 17 18 19 20 21 22 23 24 25 26 27 28 29 30 31 32 33 34 35 36 37 38 39 40 41 42 43 44 45 46 47 48 49 50
000
ASUS43 KFSD 260010
RWRSD

WEATHER ROUNDUP FOR SOUTH DAKOTA
NATIONAL WEATHER SERVICE SIOUX FALLS SD
700 PM CDT FRI JUL 25 2014

NOTE: "FAIR" INDICATES FEW OR NO CLOUDS BELOW 12,000 FEET WITH NO
SIGNIFICANT WEATHER AND/OR OBSTRUCTIONS TO VISIBILITY.


SDZ001>005-009-010-012>017-260100-
NORTHWEST AND NORTH CENTRAL SOUTH DAKOTA

CITY           SKY/WX    TMP DP  RH WIND       PRES   REMARKS
BUFFALO          N/A     82  48  30 SE9       29.79F
FAITH            N/A     82  46  28 E7        29.85F
MOBRIDGE       SUNNY     83  51  33 NE6       29.79F
$$

SDZ012>016-024>037-041>051-057-063-072>074-260100-
SOUTHWEST AND SOUTH CENTRAL SOUTH DAKOTA

CITY           SKY/WX    TMP DP  RH WIND       PRES   REMARKS
RAPID CTY ARPT SUNNY     78  54  43 S9        29.86F
PIERRE         SUNNY     86  49  27 NE8       29.79F
CUSTER         MOSUNNY   76  46  34 S6        30.01S
ELLSWORTH AFB  SUNNY     81  51  35 SE14      29.86F
PHILIP         SUNNY     89  42  19 E10       29.82S
PINE RIDGE     SUNNY     79  54  41 E8        29.88S
WINNER         FAIR      92  61  35 VRB5      29.80S
$$

SDZ004>011-016>023-039-040-260100-
NORTHEAST SOUTH DAKOTA

CITY           SKY/WX    TMP DP  RH WIND       PRES   REMARKS
ABERDEEN       SUNNY     79  59  50 N10       29.80R
WATERTOWN      CLOUDY    75  67  76 NW8       29.81R
SISSETON         N/A     77  70  79 N5        29.77R
$$

SDZ017-020-022-023-036>040-048>070-260100-
SOUTHEAST SOUTH DAKOTA

CITY           SKY/WX    TMP DP  RH WIND       PRES   REMARKS
SIOUX FALLS    MOSUNNY   86  69  56 CALM      29.76F
HURON          CLOUDY    79  68  69 NE10      29.79R
CHAMBERLAIN    MOSUNNY   85  69  58 NE6       29.79S
MITCHELL       MOSUNNY   81  70  69 N10       29.79S
YANKTON        MOSUNNY   84  73  70 E7        29.75S
$$

ABBREVIATIONS USED IN REMARKS
   TC - TEMPERATURE IN CELSIUS
  WCI - WIND CHILL INDEX
   HX - HEAT INDEX
  VSB - VISIBILITY




USA.gov is the U.S. government's official web portal to all federal, state and local government web resources and services.